CW8254 Weather Reports


Display with metric or nautical units.
time (UTC)temp
F
wind
direction
speed
MPH
gust
MPH
rain 1hr
in
rain 24hr
in
rain mn
in
humidity
%
barometer
mb
20260507203226 51 202 0.0 0.0 0.00 0.00 0.00 75 1019.1
20260507202724 51 202 0.0 1.0 0.00 0.00 0.00 75 1019.1
20260507202254 52 202 0.0 2.0 0.00 0.00 0.00 75 1019.1
20260507201726 52 202 0.0 2.0 0.00 0.00 0.00 74 1019.1
20260507201225 52 202 1.0 2.0 0.00 0.00 0.00 74 1019.1
20260507200724 52 202 0.0 0.0 0.00 0.00 0.00 74 1019.1
20260507200224 53 202 0.0 0.0 0.00 0.00 0.00 73 1019.1
20260507195724 53 202 0.0 0.0 0.00 0.00 0.00 73 1019.1
20260507195225 53 202 0.0 0.0 0.00 0.00 0.00 73 1018.1
20260507194724 53 202 0.0 0.0 0.00 0.00 0.00 73 1018.1
20260507194224 53 202 0.0 0.0 0.00 0.00 0.00 73 1018.1
20260507193725 54 202 0.0 2.0 0.00 0.00 0.00 72 1018.1
20260507192724 54 202 0.0 0.0 0.00 0.00 0.00 71 1018.1
20260507192225 55 158 0.0 1.0 0.00 0.00 0.00 71 1018.1
20260507191725 55 135 0.0 1.0 0.00 0.00 0.00 71 1018.1
20260507191245 55 180 0.0 2.0 0.00 0.00 0.00 71 1018.1
20260507190725 55 158 0.0 2.0 0.00 0.00 0.00 70 1018.1
20260507185225 56 158 1.0 2.0 0.00 0.00 0.00 70 1018.1
20260507184724 56 202 0.0 2.0 0.00 0.00 0.00 70 1018.1
20260507184226 56 135 1.0 2.0 0.00 0.00 0.00 70 1018.1
20260507183724 56 158 0.0 2.0 0.00 0.00 0.00 70 1018.1
20260507183225 56 180 0.0 2.0 0.00 0.00 0.00 70 1018.1
20260507182724 56 270 0.0 2.0 0.00 0.00 0.00 70 1018.1
20260507182225 56 158 1.0 2.0 0.00 0.00 0.00 70 1018.1
20260507181224 56 202 0.0 3.0 0.00 0.00 0.00 70 1018.1
20260507180225 56 0 1.0 3.0 0.00 0.00 0.00 70 1018.1
20260507175725 56 202 1.0 3.0 0.00 0.00 0.00 70 1018.1
20260507174724 57 292 1.0 6.0 0.00 0.00 0.00 70 1018.1
20260507174224 57 0 0.0 6.0 0.00 0.00 0.00 69 1018.1
20260507173726 57 270 1.0 6.0 0.00 0.00 0.00 69 1018.1
20260507173225 57 0 2.0 3.0 0.00 0.00 0.00 69 1018.1
20260507172724 57 202 1.0 4.0 0.00 0.00 0.00 69 1018.1
20260507172224 57 158 1.0 4.0 0.00 0.00 0.00 69 1018.1
20260507171723 57 0 2.0 4.0 0.00 0.00 0.00 69 1018.1
20260507170724 57 0 1.0 4.0 0.00 0.00 0.00 69 1018.1
20260507170226 57 0 1.0 4.0 0.00 0.00 0.00 68 1018.1
20260507165226 57 202 2.0 4.0 0.00 0.00 0.00 68 1018.1
20260507164224 57 0 2.0 4.0 0.00 0.00 0.00 68 1018.1
20260507163819 57 0 2.0 4.0 0.00 0.00 0.00 68 1018.1
20260507163225 57 0 3.0 4.0 0.00 0.00 0.00 67 1018.1
20260507162224 58 202 2.0 4.0 0.00 0.00 0.00 68 1018.1
20260507161724 58 315 1.0 4.0 0.00 0.00 0.00 68 1018.1
20260507161225 58 158 2.0 4.0 0.00 0.00 0.00 68 1018.1
20260507155724 58 248 3.0 6.0 0.00 0.00 0.00 68 1018.1
20260507155224 58 0 0.0 4.0 0.00 0.00 0.00 68 1018.1
20260507154735 58 315 2.0 4.0 0.00 0.00 0.00 68 1018.1
20260507154227 58 202 3.0 4.0 0.00 0.00 0.00 68 1018.1
20260507153724 58 248 1.0 5.0 0.00 0.00 0.00 68 1018.1
20260507153225 58 180 1.0 5.0 0.00 0.00 0.00 68 1018.1
20260507152725 58 270 1.0 5.0 0.00 0.00 0.00 68 1018.1
20260507152225 57 0 2.0 5.0 0.00 0.00 0.00 67 1018.1
20260507151725 57 0 2.0 5.0 0.00 0.00 0.00 67 1018.1
20260507151224 57 0 3.0 6.0 0.00 0.00 0.00 67 1018.1
20260507150724 57 292 2.0 6.0 0.00 0.00 0.00 68 1018.1
20260507150242 57 135 1.0 4.0 0.00 0.00 0.00 68 1018.1
20260507145224 56 202 2.0 3.0 0.00 0.00 0.00 67 1018.1
20260507144726 56 158 1.0 3.0 0.00 0.00 0.00 68 1018.1
20260507144225 56 225 1.0 6.0 0.00 0.00 0.00 67 1018.1
20260507143724 56 202 2.0 6.0 0.00 0.00 0.00 67 1018.1
20260507143224 56 0 2.0 6.0 0.00 0.00 0.00 66 1018.1
20260507142725 56 0 2.0 6.0 0.00 0.00 0.00 65 1018.1
20260507142225 57 0 3.0 5.0 0.00 0.00 0.00 65 1018.1
20260507141725 57 0 2.0 5.0 0.00 0.00 0.00 65 1018.1
20260507141224 57 180 2.0 5.0 0.00 0.00 0.00 64 1018.1
20260507140726 57 202 0.0 5.0 0.00 0.00 0.00 64 1018.1
20260507140226 57 338 3.0 3.0 0.00 0.00 0.00 64 1018.1
20260507135724 58 135 1.0 4.0 0.00 0.00 0.00 63 1018.1
20260507135225 58 202 2.0 5.0 0.00 0.00 0.00 63 1018.1
20260507134738 58 202 1.0 5.0 0.00 0.00 0.00 63 1018.1
20260507134225 58 315 1.0 4.0 0.00 0.00 0.00 62 1018.1
20260507133725 59 248 2.0 4.0 0.00 0.00 0.00 62 1018.1
20260507133224 59 0 2.0 5.0 0.00 0.00 0.00 62 1018.1
20260507132725 59 0 1.0 5.0 0.00 0.00 0.00 61 1018.1
20260507132225 59 292 2.0 5.0 0.00 0.00 0.00 62 1018.1
20260507131725 59 0 2.0 5.0 0.00 0.00 0.00 61 1018.1
20260507130747 59 0 4.0 5.0 0.00 0.00 0.00 62 1018.1
20260507130227 59 292 3.0 4.0 0.00 0.00 0.00 62 1018.1
20260507125725 59 270 2.0 4.0 0.00 0.00 0.00 62 1018.1
20260507125224 59 0 4.0 4.0 0.00 0.00 0.00 62 1018.1
20260507124225 58 292 2.0 6.0 0.00 0.00 0.00 63 1018.1
20260507123725 58 315 3.0 6.0 0.00 0.00 0.00 63 1018.1
20260507122724 58 292 3.0 5.0 0.00 0.00 0.00 62 1018.1
20260507122234 58 338 3.0 5.0 0.00 0.00 0.00 62 1018.1
20260507121725 58 338 4.0 4.0 0.00 0.00 0.00 62 1018.1
20260507120726 58 292 2.0 4.0 0.00 0.00 0.00 61 1018.1
20260507120226 58 292 2.0 4.0 0.00 0.00 0.00 60 1018.1
20260507115724 58 292 2.0 4.0 0.00 0.00 0.00 60 1018.1
20260507115225 58 248 2.0 3.0 0.00 0.00 0.00 59 1018.1
20260507114225 60 248 2.0 4.0 0.00 0.00 0.00 59 1018.1
20260507113724 60 315 1.0 4.0 0.00 0.00 0.00 58 1018.1
20260507113226 60 338 2.0 4.0 0.00 0.00 0.00 58 1018.1
20260507112725 60 0 3.0 6.0 0.00 0.00 0.00 59 1018.1
20260507112225 60 0 2.0 6.0 0.00 0.00 0.00 56 1018.1
20260507111725 61 292 1.0 6.0 0.00 0.00 0.00 58 1018.1
20260507111225 61 292 2.0 4.0 0.00 0.00 0.00 58 1018.1
20260507110725 60 0 2.0 4.0 0.00 0.00 0.00 59 1018.1
20260507110226 60 0 2.0 4.0 0.00 0.00 0.00 58 1018.1
20260507105726 60 0 2.0 3.0 0.00 0.00 0.00 57 1018.1
20260507105224 60 0 0.0 3.0 0.00 0.00 0.00 59 1018.1
20260507104724 60 135 1.0 3.0 0.00 0.00 0.00 60 1018.1
20260507104225 60 338 2.0 2.0 0.00 0.00 0.00 60 1018.1
20260507103725 60 135 2.0 3.0 0.00 0.00 0.00 61 1019.1
20260507103225 60 135 2.0 4.0 0.00 0.00 0.00 59 1019.1
20260507102725 60 270 2.0 4.0 0.00 0.00 0.00 59 1019.1
20260507102224 61 0 2.0 6.0 0.00 0.00 0.00 60 1019.1
20260507101724 61 315 3.0 6.0 0.00 0.00 0.00 59 1019.1
20260507101225 62 202 2.0 6.0 0.00 0.00 0.00 58 1019.1
20260507100724 63 0 3.0 6.0 0.00 0.00 0.00 61 1019.1
20260507095725 63 135 4.0 4.0 0.00 0.00 0.00 60 1019.1
20260507095225 63 338 3.0 5.0 0.00 0.00 0.00 63 1018.1
20260507094724 63 248 2.0 5.0 0.00 0.00 0.00 63 1018.1
20260507094226 62 0 3.0 5.0 0.00 0.00 0.00 65 1018.1
20260507093725 62 0 4.0 4.0 0.00 0.00 0.00 66 1019.1
20260507093225 61 180 1.0 4.0 0.00 0.00 0.00 64 1019.1
20260507092724 61 0 2.0 4.0 0.00 0.00 0.00 65 1019.1
20260507092225 61 202 1.0 4.0 0.00 0.00 0.00 67 1018.1
20260507091224 60 202 2.0 5.0 0.00 0.00 0.00 66 1018.1
20260507090724 60 0 2.0 5.0 0.00 0.00 0.00 69 1018.1
20260507090226 60 135 4.0 4.0 0.00 0.00 0.00 69 1018.1
20260507085724 60 0 2.0 4.0 0.00 0.00 0.00 69 1018.1
20260507085225 60 292 1.0 4.0 0.00 0.00 0.00 70 1018.1
20260507084724 60 0 2.0 4.0 0.00 0.00 0.00 70 1018.1
20260507084224 59 270 1.0 4.0 0.00 0.00 0.00 70 1018.1
20260507083726 59 0 3.0 4.0 0.00 0.00 0.00 70 1018.1
20260507083225 59 0 3.0 4.0 0.00 0.00 0.00 71 1018.1
20260507082224 58 0 2.0 4.0 0.00 0.00 0.00 73 1018.1
20260507081225 58 202 1.0 4.0 0.00 0.00 0.00 74 1018.1
20260507080724 57 202 2.0 4.0 0.00 0.00 0.00 74 1018.1
20260507080225 57 202 2.0 4.0 0.00 0.00 0.00 75 1018.1
20260507075725 57 0 2.0 3.0 0.00 0.00 0.00 76 1018.1
20260507075225 56 248 1.0 3.0 0.00 0.00 0.00 77 1018.1
20260507074725 56 135 2.0 3.0 0.00 0.00 0.00 78 1018.1
20260507074224 56 202 2.0 3.0 0.00 0.00 0.00 79 1018.1
20260507073247 55 202 2.0 2.0 0.00 0.00 0.00 81 1018.1
20260507072724 55 180 1.0 0.0 0.00 0.00 0.00 81 1018.1
20260507072224 54 248 0.0 0.0 0.00 0.00 0.00 82 1018.1
20260507071724 54 338 0.0 0.0 0.00 0.00 0.00 82 1018.1
20260507071224 53 202 0.0 0.0 0.00 0.00 0.00 83 1018.1
20260507070725 53 225 0.0 0.0 0.00 0.00 0.00 83 1018.1
20260507065724 52 202 0.0 0.0 0.00 0.00 0.00 84 1018.1
20260507065224 52 202 0.0 0.0 0.00 0.00 0.00 84 1018.1
20260507064725 52 202 0.0 0.0 0.00 0.00 0.00 85 1018.1
20260507064225 51 225 0.0 0.0 0.00 0.00 0.00 85 1018.1
20260507063724 51 225 0.0 0.0 0.00 0.00 0.00 85 1018.1
20260507062725 51 202 0.0 0.0 0.00 0.00 0.00 85 1018.1
20260507062237 51 202 0.0 0.0 0.00 0.00 0.00 86 1018.1
20260507060724 50 202 0.0 0.0 0.00 0.00 0.00 87 1018.1
20260507060225 50 180 0.0 0.0 0.00 0.00 0.00 87 1018.1
20260507055744 49 180 0.0 0.0 0.00 0.00 0.00 87 1018.1
20260507055231 49 202 0.0 0.0 0.00 0.00 0.00 87 1017.1
20260507054724 49 202 0.0 0.0 0.00 0.00 0.00 87 1017.1
20260507054225 49 202 0.0 0.0 0.00 0.00 0.00 86 1017.1
20260507053724 49 202 0.0 0.0 0.00 0.00 0.00 86 1017.1
20260507053226 48 202 0.0 0.0 0.00 0.00 0.00 86 1017.1
20260507052724 48 202 0.0 0.0 0.00 0.00 0.00 86 1017.1
20260507052245 48 202 0.0 0.0 0.00 0.00 0.00 86 1017.1
20260507051724 48 202 0.0 0.0 0.00 0.00 0.00 87 1017.1
20260507051225 48 202 0.0 0.0 0.00 0.00 0.00 87 1017.1
20260507050724 48 202 0.0 0.0 0.00 0.00 0.00 87 1017.1
20260507045724 48 202 0.0 0.0 0.00 0.00 0.00 86 1017.1
20260507045224 48 202 0.0 0.0 0.00 0.00 0.00 86 1017.1
20260507044724 48 202 0.0 0.0 0.00 0.00 0.00 86 1017.1
20260507044225 48 202 0.0 0.0 0.00 0.00 0.00 86 1017.1
20260507043724 48 202 0.0 0.0 0.00 0.00 0.00 86 1017.1
20260507043224 48 202 0.0 0.0 0.00 0.00 0.00 86 1017.1
20260507042724 48 202 0.0 0.0 0.00 0.00 0.00 86 1017.1
20260507042225 48 202 0.0 0.0 0.00 0.00 0.00 86 1017.1
20260507041724 48 202 0.0 0.0 0.00 0.00 0.00 86 1017.1
20260507041225 48 202 0.0 0.0 0.00 0.00 0.00 86 1017.1
20260507040725 48 202 0.0 0.0 0.00 0.00 0.00 86 1017.1
20260507040224 48 202 0.0 0.0 0.00 0.00 0.00 86 1017.1
20260507035724 48 202 0.0 0.0 0.00 0.00 0.00 86 1017.1
20260507035225 48 202 0.0 0.0 0.00 0.00 0.00 86 1017.1
20260507034724 48 202 0.0 0.0 0.00 0.00 0.00 86 1017.1
20260507034224 48 202 0.0 0.0 0.00 0.00 0.00 86 1017.1
20260507033724 48 202 0.0 0.0 0.00 0.00 0.00 86 1017.1
20260507033224 48 202 0.0 0.0 0.00 0.00 0.00 85 1017.1
20260507032725 48 202 0.0 0.0 0.00 0.00 0.00 85 1017.1
20260507032225 48 202 0.0 0.0 0.00 0.00 0.00 85 1017.1
20260507031725 48 202 0.0 0.0 0.00 0.00 0.00 85 1017.1
20260507031224 48 202 0.0 0.0 0.00 0.00 0.00 85 1017.1
20260507030724 48 202 0.0 0.0 0.00 0.00 0.00 85 1017.1
20260507030224 48 202 0.0 0.0 0.00 0.00 0.00 85 1017.1
20260507025724 48 202 0.0 0.0 0.00 0.00 0.00 85 1017.1
20260507025224 48 202 0.0 0.0 0.00 0.00 0.00 85 1017.1
20260507024725 48 202 0.0 0.0 0.00 0.00 0.00 85 1017.1
20260507024225 48 202 0.0 0.0 0.00 0.00 0.00 85 1017.1
20260507023724 48 202 0.0 0.0 0.00 0.00 0.00 85 1017.1
20260507023224 48 202 0.0 0.0 0.00 0.00 0.00 85 1017.1
20260507022724 48 202 0.0 0.0 0.00 0.00 0.00 85 1017.1
20260507022225 48 202 0.0 0.0 0.00 0.00 0.00 84 1017.1
20260507021724 48 202 0.0 0.0 0.00 0.00 0.00 84 1017.1
20260507021235 48 202 0.0 0.0 0.00 0.00 0.00 84 1017.1
20260507020726 48 202 0.0 0.0 0.00 0.00 0.00 84 1017.1
20260507020225 48 202 0.0 0.0 0.00 0.00 0.00 84 1017.1
20260507015725 48 202 0.0 0.0 0.00 0.00 0.00 84 1017.1
20260507015224 48 202 0.0 0.0 0.00 0.00 0.00 83 1017.1
20260507014725 48 202 0.0 0.0 0.00 0.00 0.00 84 1017.1
20260507013724 48 202 0.0 0.0 0.00 0.00 0.00 83 1017.1
20260507013225 48 202 0.0 0.0 0.00 0.00 0.00 83 1017.1
20260507012725 49 202 0.0 0.0 0.00 0.00 0.00 83 1017.1
20260507011724 49 202 0.0 0.0 0.00 0.00 0.00 83 1017.1
20260507011226 49 202 0.0 0.0 0.00 0.00 0.00 83 1017.1
20260507010224 49 202 0.0 0.0 0.00 0.00 0.00 83 1017.1
20260507005726 49 202 0.0 0.0 0.00 0.00 0.00 83 1017.1
20260507004725 49 202 0.0 0.0 0.00 0.00 0.00 83 1017.1
20260507004224 49 202 0.0 0.0 0.00 0.00 0.00 82 1017.1
20260507003725 49 202 0.0 0.0 0.00 0.00 0.00 82 1017.1
20260507003225 49 202 0.0 0.0 0.00 0.00 0.00 82 1017.1
20260507002226 49 202 0.0 0.0 0.00 0.00 0.00 82 1017.1
20260507001725 49 202 0.0 0.0 0.00 0.00 0.00 82 1017.1
20260507001224 49 202 0.0 0.0 0.00 0.00 0.00 82 1017.1
20260507000725 49 202 0.0 0.0 0.00 0.00 0.00 82 1017.1
20260507000226 49 202 0.0 0.0 0.00 0.00 0.00 81 1017.1
20260506235724 49 202 0.0 0.0 0.00 0.00 0.00 81 1017.1
20260506235226 49 202 0.0 2.0 0.00 0.00 0.00 81 1017.1
20260506233725 49 202 1.0 2.0 0.00 0.00 0.00 81 1017.1
20260506233237 49 0.0 0.0 0.00 0.00 0.00 81 1017.1
20260506232735 50 202 0.0 0.0 0.00 0.00 0.00 80 1017.1
20260506232234 50 202 0.0 0.0 0.00 0.00 0.00 80 1017.1
20260506231724 50 202 0.0 0.0 0.00 0.00 0.00 80 1017.1
20260506231224 50 202 0.0 0.0 0.00 0.00 0.00 80 1017.1
20260506230725 50 202 0.0 0.0 0.00 0.00 0.00 80 1017.1
20260506230225 50 202 0.0 0.0 0.00 0.00 0.00 80 1017.1
20260506225724 50 202 0.0 0.0 0.00 0.00 0.00 79 1017.1
20260506225225 50 202 0.0 0.0 0.00 0.00 0.00 79 1017.1
20260506224724 50 202 0.0 0.0 0.00 0.00 0.00 79 1017.1
20260506224224 50 202 0.0 0.0 0.00 0.00 0.00 79 1017.1
20260506223724 50 202 0.0 0.0 0.00 0.00 0.00 79 1017.1
20260506223225 51 202 0.0 0.0 0.00 0.00 0.00 79 1017.1
20260506222224 51 202 0.0 0.0 0.00 0.00 0.00 79 1017.1
20260506221724 51 202 0.0 0.0 0.00 0.00 0.00 79 1017.1
20260506221224 51 202 0.0 0.0 0.00 0.00 0.00 79 1017.1
20260506220225 51 202 0.0 0.0 0.00 0.00 0.00 79 1017.1
20260506215724 51 202 0.0 0.0 0.00 0.00 0.00 79 1017.1
20260506214724 51 202 0.0 1.0 0.00 0.00 0.00 78 1017.1
20260506214224 51 202 0.0 1.0 0.00 0.00 0.00 78 1017.1
20260506213224 51 202 0.0 2.0 0.00 0.00 0.00 78 1017.1
20260506212725 51 202 0.0 2.0 0.00 0.00 0.00 78 1017.1
20260506212225 51 158 1.0 0.0 0.00 0.00 0.00 78 1016.1
20260506211724 51 225 0.0 0.0 0.00 0.00 0.00 77 1016.1
20260506210231 51 225 0.0 0.0 0.00 0.00 0.00 76 1016.1
20260506205724 51 225 0.0 2.0 0.00 0.00 0.00 76 1016.1
20260506205224 51 225 0.0 2.0 0.00 0.00 0.00 76 1017.1
20260506204724 51 225 0.0 2.0 0.00 0.00 0.00 76 1017.1
20260506204225 51 248 1.0 2.0 0.00 0.00 0.00 76 1017.1
20260506203725 51 248 1.0 2.0 0.00 0.00 0.00 75 1016.1